OneWeb SL0368

operational
NORAD ID: 49294 Int'l Des: 2021-090 Owner: ONEWEBN Country: UK Constellation: oneweb
LEOCIRCULARPOLARONEWEB_TYPE

关于 OneWeb SL0368

正在加载描述...

实时位置

正在加载3D地球...

即将过境

高度历史

Altitude vs Time

uPlot chart will show altitude changes over time

两行轨道根数

1 49294U 21090R 25306.47191617 .00000048 00000-0 86551-4 0 9993
2 49294 87.9184 319.6839 0001613 118.3259 241.8037 13.20771449201057
Epoch: Nov 2, 2025 • Age: 7 hours

当前状态

高度 1205.5 km
速度 7.25 km/s
星下点 -59.74°S, 168.93°W
发射日期 Oct 14, 2021
运行时间 4 years
类型 internet

技术详情

分类 Payload
质量 148.00 kg
干质量 140.00 kg
总质量 148.00 kg
长度 1.30 m
直径 1.00 m
跨度 5.00 m
形状 Trapezoid+2 pan
制造商 ONEWUS
平台类型 ARROW
阶段状态 In Orbit
所有者/国家 ONEWEBN/UK

大型星座

Loading constellations...